Location: Marcé
(47.5801°N, 0.3280°W)
Time: 17:39:03
(UTC+01:00)

Tiros 1 - Pass Details

Date: 04 December 2021
Orbit: 629 x 664 km, 48.4° (Epoch: 26 January)

Event Time Altitude Azimuth Distance (km) Brightness Sun altitude
Rises 19:45:23 0° 232° (SW) 2,914 11.4 -25.2°
Reaches altitude 10° 19:47:45 10° 227° (SW) 2,012 10.3 -25.6°
Enters shadow 19:51:14 42° 190° (S) 916 7.9 -26.2°
Maximum altitude 19:52:12 49° 153° (SSE) 827 - -26.3°
Drops below altitude 10° 19:56:44 10° 79° (E) 2,039 - -27.1°
Sets 19:59:08 0° 74° (ENE) 2,957 - -27.5°
